Location: Melbourne
(37.8170°S, 144.9670°E)
Time: 07:32:05
(UTC+11:00)

CZ-3 R/B - Visible Passes

Search period start: 14 December 2017 00:00
Search period end: 24 December 2017 00:00
Orbit: 270 x 10424 km, 28.4° (Epoch: 12 December)

Date Brightness Start Highest point End Pass type
(mag) Time Alt. Az. Time Alt. Az. Time Alt. Az.
14 Dec 4.7 02:03:59 10° NW 03:06:04 56° N 03:20:47 10° E visible
14 Dec 5.8 22:28:36 10° NNW 23:39:21 37° NNE 00:11:03 10° E visible
15 Dec 4.4 02:47:37 10° WNW 03:43:58 60° N 03:56:34 10° E visible
15 Dec 5.7 23:05:35 10° NNW 00:19:51 44° NNE 00:48:35 10° E visible
16 Dec 4.1 03:32:03 10° WNW 04:21:22 61° N 04:32:08 10° ENE visible
16 Dec 6.5 20:02:10 10° NNE 20:46:02 17° NE 21:20:10 10° ENE visible
16 Dec 5.6 23:43:55 10° NW 00:59:58 50° NNE 01:25:24 10° E visible
17 Dec 3.8 04:16:37 10° WNW 04:58:18 61° N 05:07:33 10° ENE visible
17 Dec 6.3 20:29:41 10° N 21:26:37 24° NE 22:06:04 10° E visible
18 Dec 5.4 00:23:37 10° NW 01:39:37 56° NNE 02:01:45 10° E visible
18 Dec 3.6 05:00:41 10° W 05:34:48 57° NNW 05:42:47 10° ENE visible
18 Dec 6.1 21:01:53 10° N 22:07:03 32° NE 22:47:14 10° E visible
19 Dec 5.1 01:04:44 10° NW 02:18:42 60° NNE 02:37:46 10° E visible
19 Dec 6.0 21:36:18 10° NNW 22:47:30 39° NE 23:26:12 10° E visible
20 Dec 4.8 01:47:19 10° WNW 02:57:11 64° N 03:13:31 10° E visible
20 Dec 5.9 22:12:09 10° NNW 23:28:00 46° NNE 00:03:57 10° E visible
21 Dec 4.6 02:31:15 10° WNW 03:35:04 65° N 03:49:02 10° E visible
21 Dec 5.8 22:49:14 10° NNW 00:08:28 52° NNE 00:40:55 10° E visible
22 Dec 4.3 03:16:11 10° WNW 04:12:24 65° N 04:24:23 10° ENE visible
22 Dec 6.5 19:40:30 10° N 20:33:47 24° NE 21:17:43 10° E visible
22 Dec 5.7 23:27:29 10° NW 00:48:42 58° NNE 01:17:22 10° E visible
23 Dec 4.0 04:01:24 10° W 04:49:13 62° NNW 04:59:32 10° ENE visible
23 Dec 6.3 20:11:48 10° N 21:13:16 32° NE 21:59:50 10° E visible
